Time,TemperatureF,DewpointF,PressureIn,WindDirection,WindDirectionDegrees,WindSpeedMPH,WindSpeedGustMPH,Humidity,HourlyPrecipIn,Conditions,Clouds,dailyrainin,SoftwareType,DateUTC
2013-03-24 00:06:00,36.1,22.7,29.82,NW,322,10.0,10.0,58,0.00,,,0.00,Wunderground v.1.15,2013-03-24 04:06:00,
2013-03-24 00:11:00,36.2,22.4,29.82,North,355,9.0,10.0,57,0.00,,,0.00,Wunderground v.1.15,2013-03-24 04:11:00,
2013-03-24 00:16:00,36.1,22.7,29.82,NNW,328,9.0,11.0,58,0.00,,,0.00,Wunderground v.1.15,2013-03-24 04:16:00,
2013-03-24 00:22:00,36.0,22.6,29.82,NNW,343,8.0,11.0,58,0.00,,,0.00,Wunderground v.1.15,2013-03-24 04:22:00,
2013-03-24 00:27:00,35.9,22.5,29.82,NNW,338,9.0,9.0,58,0.00,,,0.00,Wunderground v.1.15,2013-03-24 04:27:00,
2013-03-24 00:37:00,35.9,22.5,29.82,NW,325,10.0,11.0,58,0.00,,,0.00,Wunderground v.1.15,2013-03-24 04:37:00,
2013-03-24 00:42:00,35.9,22.5,29.81,NNW,336,9.0,11.0,58,0.00,,,0.00,Wunderground v.1.15,2013-03-24 04:42:00,
2013-03-24 00:47:00,35.7,22.4,29.82,North,350,9.0,9.0,58,0.00,,,0.00,Wunderground v.1.15,2013-03-24 04:47:00,
2013-03-24 00:52:00,35.6,22.7,29.81,North,355,9.0,9.0,59,0.00,,,0.00,Wunderground v.1.15,2013-03-24 04:52:00,
2013-03-24 01:02:00,35.6,22.3,29.81,NNW,340,10.0,12.0,58,0.00,,,0.00,Wunderground v.1.15,2013-03-24 05:02:00,
2013-03-24 01:12:00,35.4,22.5,29.82,NW,320,8.0,12.0,59,0.00,,,0.00,Wunderground v.1.15,2013-03-24 05:12:00,
2013-03-24 01:23:00,35.2,22.3,29.82,NNW,327,10.0,12.0,59,0.00,,,0.00,Wunderground v.1.15,2013-03-24 05:23:00,
2013-03-24 01:33:00,35.1,22.2,29.82,NNW,348,11.0,11.0,59,0.00,,,0.00,Wunderground v.1.15,2013-03-24 05:33:00,
2013-03-24 01:41:00,35.0,22.1,29.83,NNW,347,9.0,9.0,59,0.00,,,0.00,Wunderground v.1.15,2013-03-24 05:41:00,
2013-03-24 01:47:00,35.0,22.5,29.82,NNW,333,9.0,10.0,60,0.00,,,0.00,Wunderground v.1.15,2013-03-24 05:47:00,
2013-03-24 01:51:00,34.9,22.4,29.83,NNW,334,9.0,9.0,60,0.00,,,0.00,Wunderground v.1.15,2013-03-24 05:51:00,
2013-03-24 01:57:00,34.9,22.4,29.83,NNW,331,9.0,11.0,60,0.00,,,0.00,Wunderground v.1.15,2013-03-24 05:57:00,
2013-03-24 02:06:00,34.8,21.9,29.83,NW,320,10.0,12.0,59,0.00,,,0.00,Wunderground v.1.15,2013-03-24 06:06:00,
2013-03-24 02:16:00,34.7,22.2,29.83,North,360,8.0,12.0,60,0.00,,,0.00,Wunderground v.1.15,2013-03-24 06:16:00,
2013-03-24 02:21:00,34.7,22.2,29.83,NNW,347,8.0,8.0,60,0.00,,,0.00,Wunderground v.1.15,2013-03-24 06:21:00,
2013-03-24 02:31:00,34.7,22.6,29.83,NW,313,9.0,14.0,61,0.00,,,0.00,Wunderground v.1.15,2013-03-24 06:31:00,
2013-03-24 02:36:00,34.6,22.5,29.83,NNW,340,9.0,14.0,61,0.00,,,0.00,Wunderground v.1.15,2013-03-24 06:36:00,
2013-03-24 02:46:00,34.4,22.3,29.82,NNW,329,8.0,12.0,61,0.00,,,0.00,Wunderground v.1.15,2013-03-24 06:46:00,
2013-03-24 02:56:00,34.5,22.4,29.82,NNW,346,10.0,13.0,61,0.00,,,0.00,Wunderground v.1.15,2013-03-24 06:56:00,
2013-03-24 03:02:00,34.5,22.8,29.82,NW,316,10.0,10.0,62,0.00,,,0.00,Wunderground v.1.15,2013-03-24 07:02:00,
2013-03-24 03:12:00,34.3,22.6,29.82,North,350,10.0,10.0,62,0.00,,,0.00,Wunderground v.1.15,2013-03-24 07:12:00,
2013-03-24 03:17:00,34.3,22.6,29.82,NW,313,10.0,12.0,62,0.00,,,0.00,Wunderground v.1.15,2013-03-24 07:17:00,
2013-03-24 03:27:00,34.1,22.8,29.82,NNW,327,9.0,13.0,63,0.00,,,0.00,Wunderground v.1.15,2013-03-24 07:27:00,
2013-03-24 03:38:00,34.1,23.2,29.81,NNW,344,9.0,12.0,64,0.00,,,0.00,Wunderground v.1.15,2013-03-24 07:38:00,
2013-03-24 03:46:00,34.2,23.3,29.81,NNW,347,10.0,12.0,64,0.00,,,0.00,Wunderground v.1.15,2013-03-24 07:46:00,
2013-03-24 03:51:00,34.2,23.7,29.81,North,355,11.0,11.0,65,0.00,,,0.00,Wunderground v.1.15,2013-03-24 07:51:00,
2013-03-24 04:01:00,34.2,23.7,29.81,NNW,342,8.0,12.0,65,0.00,,,0.00,Wunderground v.1.15,2013-03-24 08:01:00,
2013-03-24 04:06:00,34.1,23.6,29.81,NNW,327,8.0,12.0,65,0.00,,,0.00,Wunderground v.1.15,2013-03-24 08:06:00,
2013-03-24 04:11:00,34.1,23.6,29.81,NNW,342,7.0,7.0,65,0.00,,,0.00,Wunderground v.1.15,2013-03-24 08:11:00,
2013-03-24 04:21:00,33.7,23.9,29.80,NNW,340,7.0,12.0,67,0.00,,,0.00,Wunderground v.1.15,2013-03-24 08:21:00,
2013-03-24 04:26:00,33.6,23.8,29.80,NNW,336,8.0,12.0,67,0.00,,,0.00,Wunderground v.1.15,2013-03-24 08:26:00,
2013-03-24 04:31:00,33.4,23.6,29.80,North,350,8.0,8.0,67,0.00,,,0.00,Wunderground v.1.15,2013-03-24 08:31:00,
2013-03-24 04:36:00,33.3,23.9,29.80,NNW,348,8.0,12.0,68,0.00,,,0.00,Wunderground v.1.15,2013-03-24 08:36:00,
2013-03-24 04:46:00,33.3,23.5,29.81,NNW,332,8.0,12.0,67,0.00,,,0.00,Wunderground v.1.15,2013-03-24 08:46:00,
2013-03-24 04:51:00,33.3,23.9,29.81,NNW,342,7.0,12.0,68,0.00,,,0.00,Wunderground v.1.15,2013-03-24 08:51:00,
2013-03-24 04:56:00,33.3,23.9,29.81,NNW,340,6.0,12.0,68,0.00,,,0.00,Wunderground v.1.15,2013-03-24 08:56:00,
2013-03-24 05:06:00,33.3,23.9,29.81,NNW,341,8.0,8.0,68,0.00,,,0.00,Wunderground v.1.15,2013-03-24 09:06:00,
2013-03-24 05:11:00,33.3,23.9,29.81,North,350,8.0,12.0,68,0.00,,,0.00,Wunderground v.1.15,2013-03-24 09:11:00,
2013-03-24 05:21:00,33.1,23.7,29.81,NNW,335,7.0,12.0,68,0.00,,,0.00,Wunderground v.1.15,2013-03-24 09:21:00,
2013-03-24 05:26:00,33.1,24.0,29.81,NNW,330,7.0,12.0,69,0.00,,,0.00,Wunderground v.1.15,2013-03-24 09:26:00,
2013-03-24 05:36:00,33.0,23.9,29.82,NNW,344,7.0,12.0,69,0.00,,,0.00,Wunderground v.1.15,2013-03-24 09:36:00,
2013-03-24 05:46:00,33.0,23.9,29.82,NNW,344,8.0,12.0,69,0.00,,,0.00,Wunderground v.1.15,2013-03-24 09:46:00,
2013-03-24 05:51:00,32.9,24.2,29.82,NNE,24,7.0,12.0,70,0.00,,,0.00,Wunderground v.1.15,2013-03-24 09:51:00,
2013-03-24 06:01:00,32.9,24.5,29.82,NNE,14,8.0,12.0,71,0.00,,,0.00,Wunderground v.1.15,2013-03-24 10:01:00,
2013-03-24 06:06:00,33.1,24.7,29.83,NNW,329,8.0,12.0,71,0.00,,,0.00,Wunderground v.1.15,2013-03-24 10:06:00,
2013-03-24 06:16:00,33.0,24.6,29.83,North,355,7.0,8.0,71,0.00,,,0.00,Wunderground v.1.15,2013-03-24 10:16:00,
2013-03-24 06:26:00,33.0,24.3,29.83,NNW,339,9.0,9.0,70,0.00,,,0.00,Wunderground v.1.15,2013-03-24 10:26:00,
2013-03-24 06:31:00,33.0,24.6,29.84,NNW,343,8.0,8.0,71,0.00,,,0.00,Wunderground v.1.15,2013-03-24 10:31:00,
2013-03-24 06:36:00,33.0,24.3,29.85,NW,323,8.0,12.0,70,0.00,,,0.00,Wunderground v.1.15,2013-03-24 10:36:00,
2013-03-24 06:41:00,32.9,24.2,29.84,NW,321,9.0,9.0,70,0.00,,,0.00,Wunderground v.1.15,2013-03-24 10:41:00,
2013-03-24 06:51:00,33.4,24.7,29.85,NW,324,8.0,12.0,70,0.00,,,0.00,Wunderground v.1.15,2013-03-24 10:51:00,
2013-03-24 06:56:00,33.7,24.6,29.85,North,349,8.0,12.0,69,0.00,,,0.00,Wunderground v.1.15,2013-03-24 10:56:00,
2013-03-24 07:06:00,33.7,24.6,29.85,NW,317,9.0,12.0,69,0.00,,,0.00,Wunderground v.1.15,2013-03-24 11:06:00,
2013-03-24 07:11:00,33.8,24.7,29.85,NW,321,9.0,9.0,69,0.00,,,0.00,Wunderground v.1.15,2013-03-24 11:11:00,
2013-03-24 07:17:00,34.0,24.9,29.85,NW,321,8.0,12.0,69,0.00,,,0.00,Wunderground v.1.15,2013-03-24 11:17:00,
2013-03-24 07:26:00,34.9,25.4,29.86,NW,313,8.0,12.0,68,0.00,,,0.00,Wunderground v.1.15,2013-03-24 11:26:00,
2013-03-24 07:31:00,35.2,25.3,29.85,NNW,347,8.0,8.0,67,0.00,,,0.00,Wunderground v.1.15,2013-03-24 11:31:00,
2013-03-24 07:36:00,35.7,25.4,29.85,North,355,9.0,13.0,66,0.00,,,0.00,Wunderground v.1.15,2013-03-24 11:36:00,
2013-03-24 07:46:00,36.6,25.9,29.85,North,349,8.0,12.0,65,0.00,,,0.00,Wunderground v.1.15,2013-03-24 11:46:00,
2013-03-24 07:51:00,36.8,25.8,29.85,North,355,8.0,8.0,64,0.00,,,0.00,Wunderground v.1.15,2013-03-24 11:51:00,
2013-03-24 08:01:00,37.1,26.0,29.85,North,360,9.0,9.0,64,0.00,,,0.00,Wunderground v.1.15,2013-03-24 12:01:00,
2013-03-24 08:07:00,37.5,26.4,29.84,North,349,8.0,12.0,64,0.00,,,0.00,Wunderground v.1.15,2013-03-24 12:07:00,
2013-03-24 08:16:00,38.3,26.8,29.84,North,355,7.0,12.0,63,0.00,,,0.00,Wunderground v.1.15,2013-03-24 12:16:00,
2013-03-24 08:21:00,38.4,26.5,29.83,North,5,7.0,7.0,62,0.00,,,0.00,Wunderground v.1.15,2013-03-24 12:21:00,
2013-03-24 08:31:00,39.3,27.7,29.83,North,355,6.0,12.0,63,0.00,,,0.00,Wunderground v.1.15,2013-03-24 12:31:00,
2013-03-24 08:41:00,40.3,27.5,29.83,NNW,334,7.0,12.0,60,0.00,,,0.00,Wunderground v.1.15,2013-03-24 12:41:00,
2013-03-24 08:46:00,40.6,27.4,29.83,North,360,7.0,12.0,59,0.00,,,0.00,Wunderground v.1.15,2013-03-24 12:46:00,
2013-03-24 08:51:00,41.1,28.3,29.83,NNW,341,7.0,7.0,60,0.00,,,0.00,Wunderground v.1.15,2013-03-24 12:51:00,
2013-03-24 08:56:00,42.1,29.2,29.84,NNW,336,6.0,12.0,60,0.00,,,0.00,Wunderground v.1.15,2013-03-24 12:56:00,
2013-03-24 09:06:00,42.6,27.5,29.85,North,350,8.0,12.0,55,0.00,,,0.00,Wunderground v.1.15,2013-03-24 13:06:00,
2013-03-24 09:11:00,42.8,28.2,29.85,NNW,342,8.0,12.0,56,0.00,,,0.00,Wunderground v.1.15,2013-03-24 13:11:00,
2013-03-24 09:17:00,42.9,28.3,29.85,North,355,8.0,12.0,56,0.00,,,0.00,Wunderground v.1.15,2013-03-24 13:17:00,
2013-03-24 09:27:00,44.6,29.9,29.86,North,5,6.0,12.0,56,0.00,,,0.00,Wunderground v.1.15,2013-03-24 13:27:00,
2013-03-24 09:37:00,45.2,28.6,29.86,NNE,14,8.0,12.0,52,0.00,,,0.00,Wunderground v.1.15,2013-03-24 13:37:00,
2013-03-24 09:42:00,45.4,28.3,29.87,NNW,331,9.0,13.0,51,0.00,,,0.00,Wunderground v.1.15,2013-03-24 13:42:00,
2013-03-24 09:52:00,44.9,28.3,29.86,North,350,9.0,9.0,52,0.00,,,0.00,Wunderground v.1.15,2013-03-24 13:52:00,
2013-03-24 09:57:00,45.2,28.1,29.86,NNE,14,9.0,12.0,51,0.00,,,0.00,Wunderground v.1.15,2013-03-24 13:57:00,
2013-03-24 10:02:00,45.8,29.2,29.86,North,5,8.0,8.0,52,0.00,,,0.00,Wunderground v.1.15,2013-03-24 14:02:00,
2013-03-24 10:12:00,47.0,30.3,29.85,North,5,7.0,12.0,52,0.00,,,0.00,Wunderground v.1.15,2013-03-24 14:12:00,
2013-03-24 10:19:00,47.4,29.2,29.85,North,5,7.0,12.0,49,0.00,,,0.00,Wunderground v.1.15,2013-03-24 14:19:00,
2013-03-24 10:28:00,47.2,28.5,29.86,NNE,15,8.0,12.0,48,0.00,,,0.00,Wunderground v.1.15,2013-03-24 14:28:00,
2013-03-24 10:33:00,47.3,28.6,29.86,NNW,348,8.0,16.0,48,0.00,,,0.00,Wunderground v.1.15,2013-03-24 14:33:00,
2013-03-24 10:38:00,47.4,30.2,29.85,North,355,8.0,16.0,51,0.00,,,0.00,Wunderground v.1.15,2013-03-24 14:38:00,
2013-03-24 10:47:00,48.3,28.5,29.86,North,355,7.0,9.0,46,0.00,,,0.00,Wunderground v.1.15,2013-03-24 14:47:00,
2013-03-24 10:56:00,48.9,29.5,29.85,NNW,345,5.0,12.0,47,0.00,,,0.00,Wunderground v.1.15,2013-03-24 14:56:00,
2013-03-24 11:01:00,49.3,28.8,29.85,North,355,5.0,12.0,45,0.00,,,0.00,Wunderground v.1.15,2013-03-24 15:01:00,
2013-03-24 11:11:00,49.7,30.3,29.85,North,355,7.0,12.0,47,0.00,,,0.00,Wunderground v.1.15,2013-03-24 15:11:00,
2013-03-24 11:21:00,50.7,29.6,29.84,North,5,5.0,12.0,44,0.00,,,0.00,Wunderground v.1.15,2013-03-24 15:21:00,
2013-03-24 11:31:00,51.0,29.3,29.83,NNE,20,6.0,6.0,43,0.00,,,0.00,Wunderground v.1.15,2013-03-24 15:31:00,
2013-03-24 11:41:00,51.5,30.8,29.83,NNE,13,5.0,5.0,45,0.00,,,0.00,Wunderground v.1.15,2013-03-24 15:41:00,
2013-03-24 11:47:00,51.6,29.2,29.83,NW,317,6.0,10.0,42,0.00,,,0.00,Wunderground v.1.15,2013-03-24 15:47:00,
2013-03-24 11:58:00,50.3,28.6,29.83,NNE,18,7.0,12.0,43,0.00,,,0.00,Wunderground v.1.15,2013-03-24 15:58:00,
2013-03-24 12:08:00,50.3,26.9,29.84,North,11,6.0,12.0,40,0.00,,,0.00,Wunderground v.1.15,2013-03-24 16:08:00,
2013-03-24 12:13:00,50.4,29.3,29.83,North,5,6.0,12.0,44,0.00,,,0.00,Wunderground v.1.15,2013-03-24 16:13:00,
2013-03-24 12:23:00,51.1,29.4,29.83,NNW,329,5.0,12.0,43,0.00,,,0.00,Wunderground v.1.15,2013-03-24 16:23:00,
2013-03-24 12:33:00,50.6,26.5,29.83,North,349,6.0,12.0,39,0.00,,,0.00,Wunderground v.1.15,2013-03-24 16:33:00,
2013-03-24 12:46:00,52.4,30.5,29.82,NNW,339,6.0,12.0,43,0.00,,,0.00,Wunderground v.1.15,2013-03-24 16:46:00,
2013-03-24 12:51:00,53.1,30.6,29.82,NNW,346,5.0,12.0,42,0.00,,,0.00,Wunderground v.1.15,2013-03-24 16:51:00,
2013-03-24 13:01:00,54.2,29.8,29.81,WNW,292,5.0,5.0,39,0.00,,,0.00,Wunderground v.1.15,2013-03-24 17:01:00,
2013-03-24 13:07:00,54.0,30.8,29.81,North,360,5.0,12.0,41,0.00,,,0.00,Wunderground v.1.15,2013-03-24 17:07:00,
2013-03-24 13:16:00,54.1,29.7,29.81,NNE,18,6.0,12.0,39,0.00,,,0.00,Wunderground v.1.15,2013-03-24 17:16:00,
2013-03-24 13:21:00,52.9,29.8,29.81,NE,50,6.0,6.0,41,0.00,,,0.00,Wunderground v.1.15,2013-03-24 17:21:00,
2013-03-24 13:31:00,47.6,23.8,29.81,East,81,3.0,3.0,39,0.00,,,0.00,Wunderground v.1.15,2013-03-24 17:31:00,
2013-03-24 13:41:00,49.5,28.5,29.80,North,5,3.0,12.0,44,0.00,,,0.00,Wunderground v.1.15,2013-03-24 17:41:00,
2013-03-24 13:46:00,50.0,30.5,29.80,NNE,17,5.0,12.0,47,0.00,,,0.00,Wunderground v.1.15,2013-03-24 17:46:00,
2013-03-24 13:51:00,51.3,31.2,29.80,NE,39,5.0,5.0,46,0.00,,,0.00,Wunderground v.1.15,2013-03-24 17:51:00,
2013-03-24 14:01:00,47.9,28.6,29.80,South,188,4.0,12.0,47,0.00,,,0.00,Wunderground v.1.15,2013-03-24 18:01:00,
2013-03-24 14:07:00,44.3,27.8,29.80,SSW,210,6.0,12.0,52,0.00,,,0.00,Wunderground v.1.15,2013-03-24 18:07:00,
2013-03-24 14:16:00,42.4,29.1,29.80,SW,222,7.0,11.0,59,0.00,,,0.00,Wunderground v.1.15,2013-03-24 18:16:00,
2013-03-24 14:22:00,41.5,28.6,29.80,SW,219,9.0,12.0,60,0.00,,,0.00,Wunderground v.1.15,2013-03-24 18:22:00,
2013-03-24 14:32:00,41.7,27.1,29.80,SW,225,9.0,9.0,56,0.00,,,0.00,Wunderground v.1.15,2013-03-24 18:32:00,
2013-03-24 14:42:00,42.8,28.2,29.79,SSW,205,7.0,12.0,56,0.00,,,0.00,Wunderground v.1.15,2013-03-24 18:42:00,
2013-03-24 14:51:00,42.2,29.3,29.79,SSW,213,9.0,12.0,60,0.00,,,0.00,Wunderground v.1.15,2013-03-24 18:51:00,
2013-03-24 15:01:00,41.8,30.5,29.79,SW,223,11.0,12.0,64,0.00,,,0.00,Wunderground v.1.15,2013-03-24 19:01:00,
2013-03-24 15:07:00,41.9,29.0,29.79,SW,223,11.0,12.0,60,0.00,,,0.00,Wunderground v.1.15,2013-03-24 19:07:00,
2013-03-24 15:17:00,42.2,29.3,29.79,SSW,213,10.0,12.0,60,0.00,,,0.00,Wunderground v.1.15,2013-03-24 19:17:00,
2013-03-24 15:23:00,41.9,30.2,29.78,SSW,207,9.0,12.0,63,0.00,,,0.00,Wunderground v.1.15,2013-03-24 19:23:00,
2013-03-24 15:28:00,41.9,30.2,29.78,SSW,201,9.0,12.0,63,0.00,,,0.00,Wunderground v.1.15,2013-03-24 19:28:00,
2013-03-24 15:38:00,41.8,31.3,29.78,South,175,10.0,12.0,66,0.00,,,0.00,Wunderground v.1.15,2013-03-24 19:38:00,
2013-03-24 15:43:00,42.4,32.6,29.77,South,184,9.0,12.0,68,0.00,,,0.00,Wunderground v.1.15,2013-03-24 19:43:00,
2013-03-24 15:51:00,41.9,32.1,29.77,SSW,206,9.0,12.0,68,0.00,,,0.00,Wunderground v.1.15,2013-03-24 19:51:00,
2013-03-24 15:56:00,41.5,31.7,29.77,SSW,211,10.0,12.0,68,0.00,,,0.00,Wunderground v.1.15,2013-03-24 19:56:00,
2013-03-24 16:02:00,41.3,31.9,29.77,SSW,213,12.0,12.0,69,0.00,,,0.00,Wunderground v.1.15,2013-03-24 20:02:00,
2013-03-24 16:12:00,41.3,31.5,29.77,SW,220,13.0,13.0,68,0.00,,,0.00,Wunderground v.1.15,2013-03-24 20:12:00,
2013-03-24 16:22:00,41.5,29.8,29.77,SW,228,14.0,14.0,63,0.00,,,0.00,Wunderground v.1.15,2013-03-24 20:22:00,
2013-03-24 16:28:00,41.4,30.1,29.77,SW,227,14.0,14.0,64,0.00,,,0.00,Wunderground v.1.15,2013-03-24 20:28:00,
2013-03-24 16:33:00,41.2,30.3,29.78,SW,227,14.0,14.0,65,0.00,,,0.00,Wunderground v.1.15,2013-03-24 20:33:00,
2013-03-24 16:43:00,41.1,30.2,29.78,SW,222,12.0,12.0,65,0.00,,,0.00,Wunderground v.1.15,2013-03-24 20:43:00,
2013-03-24 16:51:00,41.4,30.5,29.78,SW,232,11.0,11.0,65,0.00,,,0.00,Wunderground v.1.15,2013-03-24 20:51:00,
2013-03-24 16:56:00,41.4,30.1,29.78,SW,227,11.0,12.0,64,0.00,,,0.00,Wunderground v.1.15,2013-03-24 20:56:00,
2013-03-24 17:01:00,41.0,31.2,29.78,SW,215,12.0,12.0,68,0.00,,,0.00,Wunderground v.1.15,2013-03-24 21:01:00,
2013-03-24 17:11:00,41.0,31.2,29.78,SW,221,10.0,13.0,68,0.00,,,0.00,Wunderground v.1.15,2013-03-24 21:11:00,
2013-03-24 17:16:00,41.4,32.0,29.78,SE,138,10.0,13.0,69,0.00,,,0.00,Wunderground v.1.15,2013-03-24 21:16:00,
2013-03-24 17:21:00,42.3,29.4,29.78,ESE,109,6.0,6.0,60,0.00,,,0.00,Wunderground v.1.15,2013-03-24 21:21:00,
2013-03-24 17:31:00,43.4,28.7,29.78,ESE,119,3.0,3.0,56,0.00,,,0.00,Wunderground v.1.15,2013-03-24 21:31:00,
2013-03-24 17:36:00,43.3,28.6,29.78,East,86,4.0,4.0,56,0.00,,,0.00,Wunderground v.1.15,2013-03-24 21:36:00,
2013-03-24 17:41:00,43.1,28.0,29.78,SE,136,5.0,12.0,55,0.00,,,0.00,Wunderground v.1.15,2013-03-24 21:41:00,
2013-03-24 17:51:00,42.7,29.4,29.78,ESE,121,5.0,5.0,59,0.00,,,0.00,Wunderground v.1.15,2013-03-24 21:51:00,
2013-03-24 18:01:00,42.9,27.8,29.78,ESE,105,4.0,12.0,55,0.00,,,0.00,Wunderground v.1.15,2013-03-24 22:01:00,
2013-03-24 18:06:00,42.7,28.1,29.79,ESE,120,4.0,12.0,56,0.00,,,0.00,Wunderground v.1.15,2013-03-24 22:06:00,
2013-03-24 18:12:00,42.5,27.9,29.78,East,98,4.0,4.0,56,0.00,,,0.00,Wunderground v.1.15,2013-03-24 22:12:00,
2013-03-24 18:21:00,42.3,27.7,29.78,East,80,4.0,12.0,56,0.00,,,0.00,Wunderground v.1.15,2013-03-24 22:21:00,
2013-03-24 18:27:00,42.1,27.9,29.78,ESE,105,4.0,12.0,57,0.00,,,0.00,Wunderground v.1.15,2013-03-24 22:27:00,
2013-03-24 18:37:00,41.9,28.2,29.78,East,98,3.0,7.0,58,0.00,,,0.00,Wunderground v.1.15,2013-03-24 22:37:00,
2013-03-24 18:47:00,41.5,27.4,29.78,East,94,3.0,6.0,57,0.00,,,0.00,Wunderground v.1.15,2013-03-24 22:47:00,
2013-03-24 18:57:00,41.1,27.4,29.78,East,95,3.0,12.0,58,0.00,,,0.00,Wunderground v.1.15,2013-03-24 22:57:00,
2013-03-24 19:07:00,40.7,27.1,29.78,East,95,3.0,12.0,58,0.00,,,0.00,Wunderground v.1.15,2013-03-24 23:07:00,
2013-03-24 19:12:00,40.6,27.4,29.78,East,86,2.0,12.0,59,0.00,,,0.00,Wunderground v.1.15,2013-03-24 23:12:00,
2013-03-24 19:23:00,40.4,27.6,29.78,East,85,2.0,12.0,60,0.00,,,0.00,Wunderground v.1.15,2013-03-24 23:23:00,
2013-03-24 19:33:00,40.2,28.6,29.78,East,85,1.0,12.0,63,0.00,,,0.00,Wunderground v.1.15,2013-03-24 23:33:00,
2013-03-24 19:38:00,40.2,29.0,29.79,East,88,1.0,12.0,64,0.00,,,0.00,Wunderground v.1.15,2013-03-24 23:38:00,
2013-03-24 19:48:00,40.0,29.2,29.79,ESE,105,2.0,12.0,65,0.00,,,0.00,Wunderground v.1.15,2013-03-24 23:48:00,
2013-03-24 19:56:00,39.7,30.0,29.79,ESE,105,1.0,12.0,68,0.00,,,0.00,Wunderground v.1.15,2013-03-24 23:56:00,
2013-03-24 20:01:00,39.6,29.2,29.79,ESE,105,2.0,2.0,66,0.00,,,0.00,Wunderground v.1.15,2013-03-25 00:01:00,
2013-03-24 20:11:00,39.5,31.6,29.79,South,182,3.0,3.0,73,0.00,,,0.00,Wunderground v.1.15,2013-03-25 00:11:00,
2013-03-24 20:17:00,39.4,32.1,29.79,South,182,3.0,12.0,75,0.00,,,0.00,Wunderground v.1.15,2013-03-25 00:17:00,
2013-03-24 20:27:00,39.3,32.4,29.80,South,191,3.0,12.0,76,0.00,,,0.00,Wunderground v.1.15,2013-03-25 00:27:00,
2013-03-24 20:33:00,38.6,31.7,29.80,South,191,2.0,2.0,76,0.00,,,0.00,Wunderground v.1.15,2013-03-25 00:33:00,
2013-03-24 20:43:00,38.1,31.5,29.81,SSW,205,1.0,12.0,77,0.00,,,0.00,Wunderground v.1.15,2013-03-25 00:43:00,
2013-03-24 20:51:00,37.8,31.6,29.83,SW,232,3.0,12.0,78,0.00,,,0.00,Wunderground v.1.15,2013-03-25 00:51:00,
2013-03-24 21:01:00,37.8,32.2,29.83,SW,228,4.0,4.0,80,0.00,,,0.00,Wunderground v.1.15,2013-03-25 01:01:00,
2013-03-24 21:11:00,38.7,33.1,29.84,SW,216,5.0,12.0,80,0.00,,,0.00,Wunderground v.1.15,2013-03-25 01:11:00,
2013-03-24 21:16:00,39.1,33.1,29.83,SW,222,6.0,12.0,79,0.00,,,0.00,Wunderground v.1.15,2013-03-25 01:16:00,
2013-03-24 21:26:00,39.2,33.5,29.83,SW,215,5.0,12.0,80,0.00,,,0.00,Wunderground v.1.15,2013-03-25 01:26:00,
2013-03-24 21:32:00,39.0,33.0,29.83,WSW,239,5.0,5.0,79,0.00,,,0.00,Wunderground v.1.15,2013-03-25 01:32:00,
2013-03-24 21:42:00,38.0,32.4,29.83,WSW,240,3.0,12.0,80,0.00,,,0.00,Wunderground v.1.15,2013-03-25 01:42:00,
2013-03-24 21:52:00,37.4,32.1,29.83,West,266,3.0,3.0,81,0.00,,,0.00,Wunderground v.1.15,2013-03-25 01:52:00,
2013-03-24 22:02:00,37.1,31.8,29.83,West,279,3.0,3.0,81,0.00,,,0.00,Wunderground v.1.15,2013-03-25 02:02:00,
2013-03-24 22:07:00,37.0,31.7,29.83,WNW,284,3.0,12.0,81,0.00,,,0.00,Wunderground v.1.15,2013-03-25 02:07:00,
2013-03-24 22:12:00,37.0,31.7,29.83,West,278,2.0,12.0,81,0.00,,,0.00,Wunderground v.1.15,2013-03-25 02:12:00,
2013-03-24 22:18:00,36.9,31.6,29.83,WNW,285,3.0,12.0,81,0.00,,,0.00,Wunderground v.1.15,2013-03-25 02:18:00,
2013-03-24 22:27:00,36.7,31.1,29.82,NW,317,4.0,12.0,80,0.00,,,0.00,Wunderground v.1.15,2013-03-25 02:27:00,
2013-03-24 22:32:00,37.0,31.7,29.82,NW,312,3.0,12.0,81,0.00,,,0.00,Wunderground v.1.15,2013-03-25 02:32:00,
2013-03-24 22:38:00,36.9,31.3,29.82,NW,311,2.0,12.0,80,0.00,,,0.00,Wunderground v.1.15,2013-03-25 02:38:00,
2013-03-24 22:43:00,36.7,31.1,29.82,NW,311,2.0,2.0,80,0.00,,,0.00,Wunderground v.1.15,2013-03-25 02:43:00,
2013-03-24 22:51:00,36.6,31.3,29.82,NW,311,1.0,12.0,81,0.00,,,0.00,Wunderground v.1.15,2013-03-25 02:51:00,
2013-03-24 23:01:00,37.5,31.9,29.82,NW,311,1.0,1.0,80,0.00,,,0.00,Wunderground v.1.15,2013-03-25 03:01:00,
2013-03-24 23:06:00,37.4,31.5,29.81,NW,311,0.0,12.0,79,0.00,,,0.00,Wunderground v.1.15,2013-03-25 03:06:00,
2013-03-24 23:16:00,37.0,31.1,29.81,NW,311,0.0,12.0,79,0.00,,,0.00,Wunderground v.1.15,2013-03-25 03:16:00,
2013-03-24 23:26:00,36.6,31.3,29.81,NW,311,0.0,12.0,81,0.00,,,0.00,Wunderground v.1.15,2013-03-25 03:26:00,
2013-03-24 23:36:00,38.0,33.0,29.81,NNW,329,2.0,12.0,82,0.00,,,0.00,Wunderground v.1.15,2013-03-25 03:36:00,
2013-03-24 23:46:00,38.9,33.3,29.80,NNW,329,2.0,12.0,80,0.00,,,0.00,Wunderground v.1.15,2013-03-25 03:46:00,
2013-03-24 23:56:00,39.4,33.4,29.80,NNW,329,2.0,12.0,79,0.00,,,0.00,Wunderground v.1.15,2013-03-25 03:56:00,